Content
SEND FEEDBACK

Daily
Averages
Monthly
Summary
United States of America

JACKSON, MICHIGAN


Home > North America > United States > Michigan
Elevation: 1000 feet     Latitude: 42 15N     Longitude: 084 27W

WEATHER
 
SELECT A DAY
Number of Records: 76,850;   Date Range: 1/1/95 - 7/11/14
 
SHARE

PRINT THIS DATA

[ ← Previous Day ]
WEATHER ALMANAC - FEBRUARY 13, 2013
[ Next Day → ]
[ °C ]   °F
Weather ElementAverageHighLow
Temperature30.8 °F39 °F (2:56 pm)26.1 °F (1:56 am)
Dewpoint21.8 °F24.1 °F (2:56 pm)19 °F (1:56 am)
Humidity70.4 %82 % (11:56 pm)55 % (1:56 pm)
Barometer29.81 in29.92 in (1:56 am)29.74 in (2:56 pm)
Wind Speed4.2 mph10.4 mph (3:56 pm)
Weather ElementAverage
Visibility9.8 mi
Wind DirectionSE (138.3 °)

Weather ElementTotal
Precipitation---
Heating Degree Days32.5 (Base 65)
Averaged from 24 records on February 13, 2013
WEATHER CONDITIONS BREAKOUT
WIND DIRECTION BREAKOUT
WEATHER BY HOUR - FEBRUARY 13, 2013
[ °C ]   °F
Local TimeTemperatureDewpointHumidityBarometerVisibilityWind DirectionWind SpeedGust SpeedPrecipitationEventsConditions
1:56 AM26.1 °F19.0 °F75 %29.92 in10.0 miWNW (290°)6.9 mphOvercast
2:56 AM26.1 °F19.9 °F78 %29.91 in10.0 miWest (270°)4.6 mphOvercast
3:56 AM26.1 °F19.9 °F78 %29.90 in10.0 miWest (260°)4.6 mphOvercast
4:56 AM26.1 °F19.9 °F78 %29.89 in10.0 miCalmOvercast
5:56 AM26.1 °F19.9 °F78 %29.88 in10.0 miCalmOvercast
6:56 AM26.1 °F19.9 °F78 %29.86 in10.0 miCalmOvercast
7:56 AM26.1 °F19.9 °F78 %29.84 in10.0 miCalmOvercast
8:56 AM26.1 °F19.9 °F78 %29.84 in9.0 miSouth (170°)4.6 mphMostly Cloudy
9:04 AM26.6 °F19.4 °F74 %29.80 in10.0 miSE (140°)5.8 mphPartly Cloudy
9:56 AM28.0 °F21.0 °F75 %29.82 in10.0 miSouth (170°)6.9 mphClear
10:56 AM30.9 °F21.9 °F69 %29.83 in10.0 miSSW (200°)8.1 mphClear
11:56 AM33.1 °F21.9 °F64 %29.83 in10.0 miSSW (200°)6.9 mphClear
12:56 PM36.0 °F21.9 °F57 %29.79 in10.0 miSW (220°)8.1 mphClear
1:56 PM37.9 °F23.0 °F55 %29.76 in10.0 miWSW (250°)6.9 mphClear
2:56 PM39.0 °F24.1 °F55 %29.74 in10.0 miWest (260°)9.2 mphClear
3:56 PM39.0 °F24.1 °F55 %29.74 in10.0 miSW (220°)10.4 mphClear
4:56 PM39.0 °F24.1 °F55 %29.74 in10.0 miWSW (240°)9.2 mphClear
5:56 PM37.0 °F23.0 °F57 %29.75 in10.0 miWSW (250°)4.6 mphClear
6:56 PM34.0 °F24.1 °F67 %29.76 in10.0 miCalmMostly Cloudy
7:56 PM30.9 °F23.0 °F72 %29.78 in10.0 miCalmPartly Cloudy
8:56 PM28.9 °F23.0 °F78 %29.78 in8.0 miCalmClear
9:56 PM30.0 °F23.0 °F75 %29.78 in10.0 miCalmMostly Cloudy
10:56 PM30.0 °F24.1 °F79 %29.78 in10.0 miCalmMostly Cloudy
11:56 PM28.9 °F24.1 °F82 %29.78 in8.0 miSouth (180°)4.6 mphScattered Clouds
Hourly data recorded from KJXN, located miles away from Jackson, Michigan







STORIES FROM OUR PARTNERS